This demonstration page uses our WeatherBlox Daily Observations layout. Learn more.

Left ArrowRight Arrow

Hourly Observations for April 17, 2021

Temp ( °F °C ) Dew Point ( °F °C ) Humidity (%) Winds ( mph kmh ) Pressure ( in mb ) Visibility ( mi km ) Precip ( " mm )
12:15 am 00:15 Partly Cloudy 45 7 36 2 71 71 NW 5 7 29.86 1011 10 16.0934 0 0
12:35 am 00:35 Clear 46 8 36 2 66 66 NNW 7 11 29.86 1011 10 16.0934 0 0
12:55 am 00:55 Clear 46 8 36 2 66 66 N 5 7 29.86 1011 10 16.0934 0 0
1:15 am 01:15 Clear 46 8 36 2 66 66 NE 6 9 29.85 1011 10 16.0934 0 0
1:35 am 01:35 Mostly Cloudy 46 8 36 2 66 66 N 3 6 29.84 1010 10 16.0934 0 0
1:55 am 01:55 Partly Cloudy 46 8 36 2 66 66 NNE 3 6 29.84 1010 10 16.0934 0 0
2:15 am 02:15 Clear 46 8 36 2 66 66 N 3 6 29.83 1010 10 16.0934 0 0
2:35 am 02:35 Clear 45 7 36 2 71 71 Calm 29.83 1010 10 16.0934 0 0
2:55 am 02:55 Clear 43 6 36 2 76 76 Calm 29.83 1010 10 16.0934 0 0
3:35 am 03:35 Clear 45 7 36 2 71 71 N 3 6 29.84 1011 10 16.0934 0 0
3:55 am 03:55 Partly Cloudy 43 6 36 2 76 76 Calm 29.84 1011 10 16.0934 0 0
4:15 am 04:15 Partly Cloudy 37 3 36 2 93 93 W 3 6 29.85 1011 10 16.0934 0 0
4:35 am 04:35 Partly Cloudy 37 3 36 2 93 93 Calm 29.85 1011 10 16.0934 0 0
4:55 am 04:55 Partly Cloudy 37 3 36 2 93 93 Calm 29.85 1011 10 16.0934 0 0
5:15 am 05:15 Partly Cloudy 37 3 36 2 93 93 Calm 29.86 1011 10 16.0934 0 0
5:35 am 05:35 Partly Cloudy 39 4 36 2 87 87 Calm 29.86 1011 10 16.0934 0 0
5:55 am 05:55 Clear 37 3 34 1 87 87 WNW 5 7 29.86 1011 10 16.0934 0 0
6:15 am 06:15 Clear 37 3 36 2 93 93 WNW 7 11 29.86 1011 10 16.0934 0 0
6:35 am 06:35 Sunny 36 2 36 2 100 100 NW 6 9 29.87 1011 10 16.0934 0 0
6:55 am 06:55 Sunny 37 3 36 2 93 93 NW 3 6 29.88 1012 10 16.0934 0 0
7:15 am 07:15 Partly Cloudy 41 5 36 2 81 81 Calm 29.87 1012 10 16.0934 0 0
7:35 am 07:35 Partly Cloudy 43 6 37 3 81 81 Calm 29.87 1012 10 16.0934 0 0
7:55 am 07:55 Sunny 45 7 37 3 76 76 WNW 3 6 29.87 1012 10 16.0934 0 0
8:15 am 08:15 Sunny 45 7 39 4 81 81 Calm 29.89 1012 10 16.0934 0 0
8:35 am 08:35 Sunny 46 8 39 4 76 76 NNE 3 6 29.89 1012 10 16.0934 0 0
8:55 am 08:55 Partly Cloudy 48 9 39 4 71 71 N 6 9 29.89 1012 10 16.0934 0 0
9:15 am 09:15 Mostly Cloudy 50 10 39 4 67 67 NNW 10 17 29.89 1012 10 16.0934 0 0
9:35 am 09:35 Mostly Cloudy 50 10 39 4 67 67 NNW 12 19 29.89 1012 10 16.0934 0 0
9:55 am 09:55 Mostly Cloudy 52 11 39 4 62 62 N 12 19 29.88 1012 10 16.0934 0 0
10:15 am 10:15 Partly Cloudy 52 11 39 4 62 62 N 12 19 29.88 1012 10 16.0934 0 0
10:35 am 10:35 Partly Cloudy 52 11 41 5 67 67 N 14 22 29.88 1012 10 16.0934 0 0
10:55 am 10:55 Partly Cloudy 52 11 41 5 67 67 N 13 20 29.87 1012 10 16.0934 0 0
11:15 am 11:15 Sunny 54 12 41 5 63 63 N 8 13 29.87 1012 10 16.0934 0 0
11:35 am 11:35 Mostly Cloudy 54 12 41 5 63 63 N 7 11 29.87 1012 10 16.0934 0 0
11:55 am 11:55 Cloudy 54 12 41 5 63 63 N 14 22 29.88 1012 10 16.0934 0 0
12:15 pm 12:15 Cloudy 54 12 41 5 63 63 N 9 15 29.87 1012 10 16.0934 0 0
12:35 pm 12:35 Cloudy 54 12 41 5 63 63 NNW 7 11 29.86 1011 10 16.0934 0 0
12:55 pm 12:55 Mostly Cloudy 54 12 41 5 63 63 NNE 8 13 29.86 1011 10 16.0934 0 0
1:15 pm 13:15 Cloudy 54 12 41 5 63 63 Calm 29.86 1011 10 16.0934 0 0
1:35 pm 13:35 Cloudy 54 12 41 5 63 63 N 6 9 29.85 1011 10 16.0934 0 0
1:55 pm 13:55 Cloudy 54 12 41 5 63 63 NNE 5 7 29.85 1011 10 16.0934 0 0
2:15 pm 14:15 Cloudy 55 13 41 5 59 59 NNW 10 17 29.85 1011 10 16.0934 0 0
2:35 pm 14:35 Mostly Cloudy 57 14 41 5 55 55 NNW 9 15 29.84 1011 10 16.0934 0 0
2:55 pm 14:55 Mostly Cloudy 55 13 41 5 59 59 NNW 9 15 29.84 1011 10 16.0934 0 0
3:15 pm 15:15 Partly Cloudy 57 14 41 5 55 55 N 14 22 29.83 1010 10 16.0934 0 0
3:35 pm 15:35 Sunny 57 14 41 5 55 55 NNW 8 13 29.83 1010 10 16.0934 0 0
3:55 pm 15:55 Partly Cloudy 55 13 41 5 59 59 N 7 11 29.83 1010 10 16.0934 0 0
4:15 pm 16:15 Partly Cloudy 57 14 41 5 55 55 N 8 13 29.83 1010 10 16.0934 0 0
4:35 pm 16:35 Mostly Cloudy 57 14 41 5 55 55 NNW 9 15 29.83 1010 10 16.0934 0 0
4:55 pm 16:55 Cloudy 55 13 41 5 59 59 N 9 15 29.83 1010 10 16.0934 0 0
5:15 pm 17:15 Cloudy 55 13 41 5 59 59 NNW 6 9 29.83 1010 10 16.0934 0 0
5:35 pm 17:35 Cloudy 55 13 41 5 59 59 NNW 6 9 29.83 1010 10 16.0934 0 0
5:55 pm 17:55 Cloudy 57 14 41 5 55 55 NNW 8 13 29.83 1010 10 16.0934 0 0
6:15 pm 18:15 Partly Cloudy 55 13 41 5 59 59 NNW 6 9 29.83 1010 10 16.0934 0 0
6:35 pm 18:35 Mostly Cloudy 55 13 41 5 59 59 NNW 8 13 29.84 1011 10 16.0934 0 0
6:55 pm 18:55 Mostly Cloudy 55 13 41 5 59 59 NNW 7 11 29.84 1011 10 16.0934 0 0
7:15 pm 19:15 Partly Cloudy 55 13 41 5 59 59 NNE 7 11 29.84 1011 10 16.0934 0 0
7:35 pm 19:35 Sunny 55 13 41 5 59 59 NE 3 6 29.84 1011 10 16.0934 0 0
7:55 pm 19:55 Clear 54 12 41 5 63 63 NNE 3 6 29.85 1011 10 16.0934 0 0
8:15 pm 20:15 Clear 54 12 41 5 63 63 NE 3 6 29.85 1011 10 16.0934 0 0
8:35 pm 20:35 Clear 54 12 41 5 63 63 Calm 29.86 1011 10 16.0934 0 0
8:55 pm 20:55 Clear 54 12 41 5 63 63 Calm 29.87 1012 10 16.0934 0 0
9:15 pm 21:15 Mostly Cloudy 54 12 41 5 63 63 Calm 29.87 1012 10 16.0934 0 0
9:35 pm 21:35 Cloudy 52 11 41 5 67 67 NE 3 6 29.88 1012 10 16.0934 0 0
9:55 pm 21:55 Cloudy 52 11 41 5 67 67 NNE 5 7 29.88 1012 10 16.0934 0 0
10:15 pm 22:15 Mostly Cloudy 52 11 41 5 67 67 NNE 5 7 29.88 1012 10 16.0934 0 0
10:35 pm 22:35 Partly Cloudy 52 11 41 5 67 67 NNE 5 7 29.89 1012 10 16.0934 0 0
10:55 pm 22:55 Clear 50 10 41 5 71 71 Calm 29.9 1012 10 16.0934 0 0
11:15 pm 23:15 Clear 50 10 41 5 71 71 Calm 29.9 1012 10 16.0934 0 0
11:35 pm 23:35 Clear 50 10 41 5 71 71 Calm 29.9 1012 10 16.0934 0 0
11:55 pm 23:55 Clear 50 10 41 5 71 71 Calm 29.91 1013 10 16.0934 0 0

Powered by AerisWeather